Weather History for Arlington, WA

Change the Weather History Date:

Tuesday, May 7, 2013

  Actual Average Record
Temperature  
Mean Temperature 58 °F -  
Max Temperature 71 °F 66 °F 73 °F (2007)
Min Temperature 46 °F 38 °F 28 °F (2000)
Degree Days  
Heating Degree Days 6    
Growing Degree Days 8 (Base 50)    
Moisture  
Dew Point 49 °F    
Average Humidity 76    
Maximum Humidity 93    
Minimum Humidity 53    
Precipitation  
Precipitation 0.00 in - - ()
Sea Level Pressure  
Sea Level Pressure 29.95 in    
Wind  
Wind Speed 3 mph (SW)    
Max Wind Speed 14 mph    
Max Gust Speed -    
Visibility 10 miles    
Events      
Averages and records for this station are not official NWS values.
T = Trace of Precipitation, MM = Missing Value Source: NWS Daily Summary

Daily Weather History Graph

Daily Weather History Graph

Search for Another Location

Airport:

Trip Planner

Search our weather history database for the weather conditions in past years. The results will help you decide how hot, cold, wet, or windy it might be!

Date:

Astronomy

May. 07, 2013 Rise Set
Actual Time 5:40 AM PDT 8:31 PM PDT
Civil Twilight 5:04 AM PDT 9:07 PM PDT
Nautical Twilight 4:18 AM PDT 9:53 PM PDT
Astronomical Twilight 3:23 AM PDT 10:49 PM PDT
Moon 4:27 AM PDT (5/7) 6:28 PM PDT (5/7)
Length of Visible Light 16h 03m
Length of Day
14h 51m
Waning Crescent, 5% of the Moon is Illuminated
May 7
Waning Crescent
May 9
New
May 17
First Quarter
May 24
Full
May 31
Last Quarter

Hourly Weather History & Observations

Time (PDT) Temp. Dew Point Humidity Pressure Visibility Wind Dir Wind Speed Gust Speed Precip Events Conditions
12:15 AM 53.6 °F 44.6 °F 72% 29.85 in 10.0 mi Calm Calm - N/A   Clear
12:35 AM 53.6 °F 44.6 °F 72% 29.85 in 10.0 mi Calm Calm - N/A   Clear
12:55 AM 51.8 °F 44.6 °F 76% 29.86 in 10.0 mi Calm Calm - N/A   Clear
1:15 AM 51.8 °F 46.4 °F 82% 29.86 in 10.0 mi Calm Calm - N/A   Clear
1:35 AM 50.0 °F 44.6 °F 82% 29.87 in 10.0 mi NNE 4.6 mph - N/A   Clear
1:55 AM 50.0 °F 44.6 °F 82% 29.87 in 10.0 mi NW 3.5 mph - N/A   Clear
2:15 AM 48.2 °F 44.6 °F 87% 29.88 in 10.0 mi NW 4.6 mph - N/A   Clear
2:35 AM 50.0 °F 46.4 °F 87% 29.88 in 10.0 mi Calm Calm - N/A   Clear
3:15 AM 48.2 °F 44.6 °F 87% 29.89 in 10.0 mi SSE 3.5 mph - N/A   Clear
3:35 AM 48.2 °F 44.6 °F 87% 29.90 in 10.0 mi Calm Calm - N/A   Clear
3:55 AM 48.2 °F 46.4 °F 93% 29.90 in 10.0 mi Calm Calm - N/A   Clear
4:15 AM 46.4 °F 44.6 °F 93% 29.91 in 10.0 mi Calm Calm - N/A   Clear
4:35 AM 48.2 °F 44.6 °F 87% 29.92 in 10.0 mi Calm Calm - N/A   Clear
4:55 AM 46.4 °F 44.6 °F 93% 29.92 in 10.0 mi Calm Calm - N/A   Clear
5:15 AM 46.4 °F 44.6 °F 93% 29.93 in 10.0 mi Calm Calm - N/A   Clear
5:35 AM 46.4 °F 44.6 °F 93% 29.94 in 10.0 mi Calm Calm - N/A   Clear
5:55 AM 46.4 °F 44.6 °F 93% 29.94 in 10.0 mi Calm Calm - N/A   Clear
6:15 AM 46.4 °F 44.6 °F 93% 29.95 in 10.0 mi Calm Calm - N/A   Clear
6:35 AM 46.4 °F 44.6 °F 93% 29.95 in 10.0 mi Calm Calm - N/A   Clear
6:55 AM 48.2 °F 44.6 °F 87% 29.96 in 10.0 mi South 5.8 mph - N/A   Clear
7:15 AM 51.8 °F 48.2 °F 88% 29.97 in 9.0 mi South 5.8 mph - N/A   Scattered Clouds
7:35 AM 51.8 °F 48.2 °F 88% 29.97 in 10.0 mi SSW 8.1 mph - N/A   Overcast
7:55 AM 51.8 °F 48.2 °F 88% 29.98 in 8.0 mi South 6.9 mph - N/A   Overcast
9:15 AM - - N/A% 29.99 in - South 6.9 mph - N/A   Unknown
9:35 AM 53.6 °F 48.2 °F 82% 29.99 in 10.0 mi South 10.4 mph - N/A   Overcast
9:55 AM 53.6 °F 48.2 °F 82% 29.99 in 10.0 mi South 6.9 mph - N/A   Overcast
10:15 AM 55.4 °F 48.2 °F 77% 29.98 in 10.0 mi South 9.2 mph - N/A   Overcast
10:35 AM 57.2 °F 50.0 °F 77% 29.99 in 10.0 mi SSE 6.9 mph - N/A   Overcast
10:55 AM 57.2 °F 50.0 °F 77% 29.99 in 10.0 mi SSE 6.9 mph - N/A   Overcast
11:15 AM 57.2 °F 48.2 °F 72% 29.99 in 10.0 mi South 6.9 mph - N/A   Overcast
11:35 AM 59.0 °F 51.8 °F 77% 29.99 in 10.0 mi South 4.6 mph - N/A   Overcast
11:55 AM 60.8 °F 51.8 °F 72% 29.98 in 10.0 mi South 6.9 mph - N/A   Mostly Cloudy
12:15 PM 60.8 °F 51.8 °F 72% 29.98 in 10.0 mi SSW 8.1 mph - N/A   Scattered Clouds
12:35 PM 60.8 °F 51.8 °F 72% 29.98 in 10.0 mi South 5.8 mph - N/A   Clear
12:55 PM 62.6 °F 51.8 °F 68% 29.97 in 10.0 mi SSW 4.6 mph - N/A   Clear
1:15 PM 62.6 °F 51.8 °F 68% 29.97 in 10.0 mi SSW 6.9 mph - N/A   Clear
1:35 PM 64.4 °F 53.6 °F 68% 29.97 in 10.0 mi South 6.9 mph - N/A   Clear
1:55 PM 64.4 °F 51.8 °F 64% 29.97 in 10.0 mi South 5.8 mph - N/A   Clear
2:15 PM 66.2 °F 51.8 °F 60% 29.96 in 10.0 mi South 6.9 mph - N/A   Clear
2:35 PM 66.2 °F 51.8 °F 60% 29.96 in 10.0 mi SW 3.5 mph - N/A   Clear
2:55 PM 68.0 °F 53.6 °F 60% 29.96 in 10.0 mi South 5.8 mph - N/A   Clear
3:15 PM 68.0 °F 51.8 °F 56% 29.95 in 10.0 mi Calm Calm - N/A   Clear
3:35 PM 69.8 °F 53.6 °F 56% 29.95 in 10.0 mi SW 3.5 mph - N/A   Clear
3:55 PM 69.8 °F 51.8 °F 53% 29.95 in 10.0 mi South 6.9 mph - N/A   Clear
4:15 PM 69.8 °F 53.6 °F 56% 29.94 in 10.0 mi SSW 3.5 mph - N/A   Clear
4:35 PM 71.6 °F 53.6 °F 53% 29.94 in 10.0 mi SSW 6.9 mph - N/A   Clear
4:55 PM 69.8 °F 53.6 °F 56% 29.94 in 10.0 mi NNW 5.8 mph - N/A   Clear
5:15 PM 69.8 °F 53.6 °F 56% 29.94 in 10.0 mi NW 10.4 mph - N/A   Clear
5:35 PM 68.0 °F 53.6 °F 60% 29.94 in 10.0 mi NW 11.5 mph - N/A   Clear
5:55 PM 66.2 °F 53.6 °F 64% 29.94 in 10.0 mi NW 10.4 mph - N/A   Clear
6:15 PM 64.4 °F 53.6 °F 68% 29.94 in 10.0 mi NW 11.5 mph - N/A   Clear
6:35 PM 64.4 °F 53.6 °F 68% 29.95 in 10.0 mi NW 10.4 mph - N/A   Clear
6:55 PM 62.6 °F 51.8 °F 68% 29.95 in 10.0 mi NW 13.8 mph - N/A   Clear
7:15 PM 60.8 °F 51.8 °F 72% 29.95 in 10.0 mi NW 8.1 mph - N/A   Clear
7:35 PM 60.8 °F 50.0 °F 68% 29.95 in 10.0 mi NW 10.4 mph - N/A   Clear
7:55 PM 59.0 °F 50.0 °F 72% 29.95 in 10.0 mi NW 5.8 mph - N/A   Clear
8:15 PM 57.2 °F 48.2 °F 72% 29.96 in 10.0 mi NW 4.6 mph - N/A   Clear
8:35 PM 57.2 °F 48.2 °F 72% 29.96 in 10.0 mi WNW 4.6 mph - N/A   Clear
8:55 PM 55.4 °F 48.2 °F 77% 29.97 in 10.0 mi Calm Calm - N/A   Clear
9:15 PM 55.4 °F 48.2 °F 77% 29.98 in 10.0 mi Calm Calm - N/A   Clear
9:35 PM 55.4 °F 48.2 °F 77% 29.98 in 10.0 mi Calm Calm - N/A   Clear
9:55 PM 51.8 °F 46.4 °F 82% 29.98 in 10.0 mi Calm Calm - N/A   Clear
10:15 PM 53.6 °F 48.2 °F 82% 29.99 in 10.0 mi Calm Calm - N/A   Clear
10:35 PM 53.6 °F 48.2 °F 82% 30.00 in 10.0 mi Calm Calm - N/A   Clear
10:55 PM 51.8 °F 46.4 °F 82% 30.00 in 10.0 mi Calm Calm - N/A   Clear
11:15 PM 51.8 °F 48.2 °F 88% 30.01 in 10.0 mi Calm Calm - N/A   Clear
11:35 PM 51.8 °F 48.2 °F 88% 30.01 in 10.0 mi Calm Calm - N/A   Clear
11:55 PM 51.8 °F 48.2 °F 88% 30.02 in 10.0 mi Calm Calm - N/A   Clear